Bel Air, Maryland - USA |
Today's Data File |
9/5/26
Time Wind Dir Wind Spd Wind Gust Hum In Humidity Temp In Temp Raw Barom Wind Chill Press Alt Cloud Base Dens Alt Temp Out R DailyRain 24HrRain RainRate
� mph mph % % �F �F in �F ft ft ft �F/hr in in in/hr
12:00am 90 0 0 44 96 72.4 74.3 29.30 74.3 575 303 1714 -0.94 0.00 0.00 0.000
12:01am 92 0 0 44 96 72.4 74.3 29.30 74.3 575 303 1714 -0.92 0.00 0.00 0.000
12:02am 92 0 0 44 96 72.4 74.4 29.30 74.4 575 303 1720 -0.81 0.00 0.00 0.000
12:03am 92 0 0 44 96 72.3 74.3 29.30 74.3 575 303 1714 -0.90 0.00 0.00 0.000
12:04am 92 0 0 44 96 72.3 74.3 29.30 74.3 578 303 1717 -0.88 0.00 0.00 0.000
12:05am 92 0 0 44 96 72.3 74.2 29.30 74.2 579 302 1712 -0.97 0.00 0.00 0.000
12:06am 92 0 0 44 96 72.3 74.2 29.30 74.2 579 302 1712 -0.95 0.00 0.00 0.000
12:07am 92 0 0 44 96 72.3 74.2 29.30 74.2 580 302 1713 -0.93 0.00 0.00 0.000
12:08am 92 0 0 44 96 72.3 74.2 29.30 74.2 582 302 1716 -0.92 0.00 0.00 0.000
12:09am 92 0 0 44 96 72.3 74.2 29.30 74.2 581 302 1714 -0.90 0.00 0.00 0.000
12:10am 92 0 0 44 96 72.3 74.1 29.30 74.1 582 302 1709 -0.99 0.00 0.00 0.000
12:11am 92 0 0 44 96 72.3 74.1 29.30 74.1 583 302 1710 -0.97 0.00 0.00 0.000
12:12am 92 0 0 44 96 72.3 74.1 29.30 74.1 583 302 1710 -0.96 0.00 0.00 0.000
12:13am 92 0 0 44 96 72.3 74.1 29.30 74.1 583 302 1710 -0.94 0.00 0.00 0.000
12:14am 92 0 0 44 96 72.3 74.1 29.29 74.1 584 302 1711 -0.93 0.00 0.00 0.000
12:15am 92 0 0 44 96 72.1 74.1 29.29 74.1 584 302 1711 -0.91 0.00 0.00 0.000
12:16am 92 0 0 44 96 72.1 74.1 29.29 74.1 584 302 1711 -0.90 0.00 0.00 0.000
12:17am 92 0 0 44 96 72.1 74.1 29.29 74.1 584 302 1711 -0.88 0.00 0.00 0.000
12:18am 92 0 0 44 96 72.1 74.0 29.29 74.0 584 302 1705 -0.97 0.00 0.00 0.000
12:19am 92 0 0 44 96 72.1 74.0 29.29 74.0 584 302 1706 -0.95 0.00 0.00 0.000
12:20am 92 0 0 44 96 72.1 74.0 29.29 74.0 584 302 1706 -0.93 0.00 0.00 0.000
12:21am 92 0 0 44 96 72.1 74.0 29.29 74.0 584 302 1706 -0.92 0.00 0.00 0.000
12:22am 92 0 0 44 96 72.1 74.0 29.29 74.0 584 302 1706 -0.90 0.00 0.00 0.000
12:23am 92 0 0 44 96 72.1 74.0 29.29 74.0 584 302 1706 -0.89 0.00 0.00 0.000
12:24am 92 0 0 44 96 72.1 73.9 29.29 73.9 584 302 1700 -0.97 0.00 0.00 0.000
12:25am 92 0 0 44 96 72.1 74.0 29.29 74.0 584 302 1706 -0.86 0.00 0.00 0.000
12:26am 92 0 0 44 96 72.1 73.9 29.29 73.9 584 302 1700 -0.94 0.00 0.00 0.000
12:27am 92 0 0 44 96 72.1 73.9 29.29 73.9 584 302 1700 -0.93 0.00 0.00 0.000
12:28am 92 0 0 44 96 72.1 73.9 29.29 73.9 584 302 1700 -0.91 0.00 0.00 0.000
12:29am 92 0 0 44 96 72.3 73.9 29.29 73.9 584 302 1700 -0.90 0.00 0.00 0.000
12:30am 92 0 0 44 96 72.3 73.9 29.29 73.9 584 302 1700 -0.88 0.00 0.00 0.000
12:31am 92 0 0 44 96 72.3 73.9 29.29 73.9 584 302 1700 -0.87 0.00 0.00 0.000
12:32am 92 0 0 44 96 72.3 73.9 29.29 73.9 584 302 1700 -0.85 0.00 0.00 0.000
12:33am 92 0 0 44 96 72.3 73.9 29.29 73.9 584 302 1700 -0.84 0.00 0.00 0.000
12:34am 92 0 0 44 96 72.3 73.8 29.29 73.8 584 302 1694 -0.92 0.00 0.00 0.000
12:35am 92 0 0 44 96 72.3 73.8 29.29 73.8 584 302 1694 -0.91 0.00 0.00 0.000
12:36am 92 0 0 44 96 72.3 73.9 29.29 73.9 584 302 1700 -0.80 0.00 0.00 0.000
12:37am 92 0 0 44 96 72.3 73.8 29.29 73.8 584 302 1694 -0.88 0.00 0.00 0.000
12:38am 92 0 0 44 97 72.3 73.8 29.29 73.8 584 225 1694 -0.87 0.00 0.00 0.000
12:39am 92 0 0 44 97 72.3 73.8 29.29 73.8 584 225 1694 -0.85 0.00 0.00 0.000
12:40am 92 0 0 44 97 72.3 73.8 29.29 73.8 584 225 1694 -0.84 0.00 0.00 0.000
12:41am 92 0 0 44 97 72.3 73.9 29.29 73.9 584 225 1700 -0.73 0.00 0.00 0.000
12:42am 92 0 0 44 97 72.3 73.8 29.29 73.8 584 225 1694 -0.81 0.00 0.00 0.000
12:43am 92 0 0 44 97 72.3 73.8 29.29 73.8 584 225 1694 -0.80 0.00 0.00 0.000
12:44am 92 0 0 44 97 72.3 73.8 29.29 73.8 584 225 1694 -0.79 0.00 0.00 0.000
12:45am 92 0 0 44 97 72.3 73.8 29.29 73.8 584 225 1694 -0.77 0.00 0.00 0.000
12:46am 92 0 0 44 97 72.3 73.8 29.29 73.8 584 225 1694 -0.76 0.00 0.00 0.000
12:47am 92 0 0 44 97 72.3 73.8 29.29 73.8 584 225 1694 -0.75 0.00 0.00 0.000
12:48am 92 0 0 44 97 72.3 73.8 29.29 73.8 584 225 1694 -0.74 0.00 0.00 0.000
12:49am 92 0 0 44 97 72.3 73.8 29.29 73.8 584 225 1694 -0.72 0.00 0.00 0.000
12:50am 92 0 0 44 97 72.3 73.7 29.29 73.7 584 225 1687 -0.81 0.00 0.00 0.000
12:51am 92 0 0 44 97 72.3 73.8 29.29 73.8 584 225 1694 -0.70 0.00 0.00 0.000
12:52am 92 0 0 44 97 72.3 73.8 29.29 73.8 584 225 1694 -0.69 0.00 0.00 0.000
12:53am 92 0 0 44 97 72.3 73.8 29.29 73.8 584 225 1694 -0.68 0.00 0.00 0.000
12:54am 92 0 0 44 97 72.3 73.7 29.29 73.7 585 225 1688 -0.76 0.00 0.00 0.000
12:55am 92 0 0 44 97 72.3 73.7 29.29 73.7 584 225 1687 -0.75 0.00 0.00 0.000
12:56am 92 0 0 44 97 72.3 73.8 29.29 73.8 584 225 1694 -0.64 0.00 0.00 0.000
12:57am 92 0 0 44 97 72.3 73.7 29.29 73.7 584 225 1687 -0.73 0.00 0.00 0.000
12:58am 92 0 0 44 97 72.1 73.7 29.29 73.7 584 225 1687 -0.71 0.00 0.00 0.000
12:59am 92 0 0 44 97 72.1 73.7 29.29 73.7 584 225 1687 -0.70 0.00 0.00 0.000
1:00am 92 0 0 44 97 72.1 73.7 29.29 73.7 584 225 1687 -0.69 0.00 0.00 0.000
1:01am 92 0 0 44 97 72.1 73.7 29.29 73.7 584 225 1687 -0.68 0.00 0.00 0.000
1:02am 92 0 0 44 97 72.1 73.7 29.29 73.7 584 225 1687 -0.67 0.00 0.00 0.000
1:03am 92 0 0 44 97 72.1 73.6 29.29 73.6 584 225 1681 -0.76 0.00 0.00 0.000
1:04am 92 0 0 44 97 72.3 73.6 29.29 73.6 584 225 1681 -0.74 0.00 0.00 0.000
1:05am 92 0 0 44 97 72.1 73.7 29.29 73.7 584 225 1687 -0.63 0.00 0.00 0.000
1:06am 92 0 0 44 97 72.1 73.6 29.29 73.6 584 225 1681 -0.72 0.00 0.00 0.000
1:07am 92 0 0 44 97 72.1 73.6 29.29 73.6 585 225 1682 -0.71 0.00 0.00 0.000
1:08am 92 0 0 44 97 72.3 73.6 29.29 73.6 585 225 1682 -0.70 0.00 0.00 0.000
1:09am 92 0 0 44 97 72.3 73.5 29.29 73.5 585 225 1676 -0.79 0.00 0.00 0.000
1:10am 92 0 0 44 97 72.3 73.6 29.29 73.6 585 225 1682 -0.67 0.00 0.00 0.000
1:11am 92 0 0 44 97 72.3 73.6 29.29 73.6 586 225 1683 -0.66 0.00 0.00 0.000
1:12am 92 0 0 44 97 72.3 73.5 29.29 73.5 586 225 1677 -0.75 0.00 0.00 0.000
1:13am 92 0 0 44 97 72.3 73.5 29.29 73.5 586 225 1677 -0.74 0.00 0.00 0.000
1:14am 92 0 0 44 97 72.3 73.5 29.29 73.5 586 225 1677 -0.73 0.00 0.00 0.000
1:15am 92 0 0 44 97 72.3 73.5 29.29 73.5 587 225 1678 -0.72 0.00 0.00 0.000
1:16am 92 0 0 44 97 72.3 73.5 29.29 73.5 589 225 1680 -0.70 0.00 0.00 0.000
1:17am 92 0 0 44 97 72.3 73.5 29.29 73.5 590 225 1681 -0.69 0.00 0.00 0.000
1:18am 92 0 0 44 97 72.3 73.5 29.29 73.5 591 225 1683 -0.68 0.00 0.00 0.000
1:19am 92 0 0 44 97 72.3 73.5 29.29 73.5 591 225 1683 -0.67 0.00 0.00 0.000
1:20am 92 0 0 44 97 72.3 73.5 29.29 73.5 591 225 1683 -0.66 0.00 0.00 0.000
1:21am 92 0 0 44 97 72.3 73.4 29.29 73.4 591 225 1676 -0.74 0.00 0.00 0.000
1:22am 92 0 0 44 97 72.3 73.4 29.29 73.4 591 225 1676 -0.73 0.00 0.00 0.000
1:23am 92 0 0 44 97 72.4 73.4 29.29 73.4 590 225 1675 -0.72 0.00 0.00 0.000
1:24am 92 0 0 44 97 72.4 73.4 29.29 73.4 590 225 1675 -0.71 0.00 0.00 0.000
1:25am 92 0 0 44 97 72.4 73.3 29.29 73.3 590 225 1669 -0.80 0.00 0.00 0.000
1:26am 92 0 0 44 97 72.4 73.3 29.29 73.3 592 225 1671 -0.78 0.00 0.00 0.000
1:27am 92 0 0 44 97 72.4 73.3 29.28 73.3 593 225 1672 -0.77 0.00 0.00 0.000
1:28am 92 0 0 44 97 72.4 73.3 29.28 73.3 593 225 1672 -0.76 0.00 0.00 0.000
1:29am 92 0 0 44 97 72.4 73.3 29.28 73.3 594 225 1673 -0.74 0.00 0.00 0.000
1:30am 92 0 0 44 97 72.4 73.3 29.28 73.3 594 225 1673 -0.73 0.00 0.00 0.000
1:31am 92 0 1 44 97 72.4 73.3 29.28 73.3 594 225 1673 -0.72 0.00 0.00 0.000
1:32am 92 0 1 44 97 72.4 73.3 29.28 73.3 594 225 1673 -0.71 0.00 0.00 0.000
1:33am 92 0 1 44 97 72.4 73.3 29.29 73.3 592 225 1671 -0.70 0.00 0.00 0.000
1:34am 92 1 1 44 97 72.3 73.3 29.28 73.3 593 225 1672 -0.69 0.00 0.00 0.000
1:35am 92 0 1 44 97 72.3 73.3 29.29 73.3 591 225 1670 -0.67 0.00 0.00 0.000
1:36am 92 0 0 44 97 72.3 73.3 29.29 73.3 589 225 1668 -0.66 0.00 0.00 0.000
1:37am 92 0 0 44 97 72.3 73.3 29.29 73.3 590 225 1669 -0.65 0.00 0.00 0.000
1:38am 92 0 0 44 97 72.3 73.3 29.29 73.3 590 225 1669 -0.64 0.00 0.00 0.000
1:39am 92 0 0 44 97 72.3 73.3 29.29 73.3 589 225 1668 -0.63 0.00 0.00 0.000
1:40am 92 0 0 44 97 72.3 73.4 29.29 73.4 589 225 1674 -0.52 0.00 0.00 0.000
1:41am 92 0 0 44 97 72.3 73.4 29.29 73.4 588 225 1673 -0.51 0.00 0.00 0.000
1:42am 92 0 0 44 97 72.3 73.3 29.29 73.3 587 225 1665 -0.60 0.00 0.00 0.000
1:43am 92 0 0 44 97 72.3 73.4 29.29 73.4 589 225 1674 -0.49 0.00 0.00 0.000
1:44am 92 0 0 44 97 72.3 73.4 29.29 73.4 589 225 1674 -0.48 0.00 0.00 0.000
1:45am 92 0 0 44 97 72.3 73.4 29.29 73.4 589 225 1674 -0.48 0.00 0.00 0.000
1:46am 92 0 0 44 97 72.3 73.4 29.29 73.4 590 225 1675 -0.47 0.00 0.00 0.000
1:47am 92 0 0 44 97 72.3 73.4 29.29 73.4 592 225 1677 -0.46 0.00 0.00 0.000
1:48am 92 0 0 44 97 72.3 73.4 29.29 73.4 592 225 1677 -0.45 0.00 0.00 0.000
1:49am 92 0 0 44 97 72.3 73.4 29.28 73.4 593 225 1678 -0.45 0.00 0.00 0.000
1:50am 92 0 0 44 97 72.3 73.3 29.28 73.3 595 225 1674 -0.54 0.00 0.00 0.000
1:51am 92 0 0 44 97 72.3 73.3 29.28 73.3 595 225 1674 -0.53 0.00 0.00 0.000
1:52am 92 0 0 44 97 72.3 73.3 29.28 73.3 595 225 1674 -0.52 0.00 0.00 0.000
1:53am 92 0 0 44 97 72.3 73.3 29.28 73.3 596 225 1676 -0.51 0.00 0.00 0.000
1:54am 92 0 0 44 97 72.3 73.3 29.28 73.3 596 225 1676 -0.50 0.00 0.00 0.000
1:55am 92 0 0 44 97 72.3 73.2 29.28 73.2 596 225 1670 -0.59 0.00 0.00 0.000
1:56am 92 0 0 44 97 72.3 73.2 29.28 73.2 596 225 1670 -0.58 0.00 0.00 0.000
1:57am 92 0 0 44 97 72.3 73.2 29.28 73.2 597 225 1671 -0.57 0.00 0.00 0.000
1:58am 92 0 0 44 97 72.3 73.2 29.28 73.2 597 225 1671 -0.56 0.00 0.00 0.000
1:59am 92 0 0 44 97 72.3 73.2 29.28 73.2 597 225 1671 -0.56 0.00 0.00 0.000
2:00am 92 0 0 44 97 72.3 73.2 29.28 73.2 597 225 1671 -0.55 0.00 0.00 0.000
2:01am 92 0 0 44 97 72.3 73.2 29.28 73.2 597 225 1671 -0.54 0.00 0.00 0.000
2:02am 92 0 0 44 97 72.3 73.2 29.28 73.2 598 225 1673 -0.53 0.00 0.00 0.000
2:03am 92 0 0 44 97 72.3 73.1 29.28 73.1 598 224 1666 -0.62 0.00 0.00 0.000
2:04am 92 0 0 44 97 72.3 73.1 29.28 73.1 598 224 1666 -0.61 0.00 0.00 0.000
2:05am 92 0 0 44 96 72.3 73.1 29.28 73.1 598 301 1666 -0.60 0.00 0.00 0.000
2:06am 92 0 0 44 96 72.3 73.1 29.28 73.1 598 301 1666 -0.59 0.00 0.00 0.000
2:07am 92 0 0 44 96 72.4 73.1 29.28 73.1 598 301 1666 -0.58 0.00 0.00 0.000
2:08am 92 0 0 44 96 72.4 73.1 29.28 73.1 598 301 1666 -0.57 0.00 0.00 0.000
2:09am 92 0 0 44 96 72.4 73.1 29.28 73.1 598 301 1666 -0.56 0.00 0.00 0.000
2:10am 92 0 0 44 96 72.4 73.1 29.28 73.1 598 301 1666 -0.55 0.00 0.00 0.000
2:11am 92 0 0 44 96 72.4 73.1 29.28 73.1 598 301 1666 -0.54 0.00 0.00 0.000
2:12am 92 0 0 44 96 72.4 73.1 29.28 73.1 598 301 1666 -0.53 0.00 0.00 0.000
2:13am 92 0 0 44 96 72.4 73.1 29.28 73.1 598 301 1666 -0.53 0.00 0.00 0.000
2:14am 92 0 0 44 96 72.4 73.1 29.28 73.1 598 301 1666 -0.52 0.00 0.00 0.000
2:15am 92 0 0 44 96 72.4 73.1 29.28 73.1 598 301 1666 -0.51 0.00 0.00 0.000
2:16am 92 0 0 44 96 72.4 73.1 29.28 73.1 599 301 1667 -0.50 0.00 0.00 0.000
2:17am 92 0 0 44 96 72.4 73.1 29.28 73.1 598 301 1666 -0.49 0.00 0.00 0.000
2:18am 92 0 0 44 96 72.4 73.1 29.28 73.1 598 301 1666 -0.48 0.00 0.00 0.000
2:19am 92 0 0 44 96 72.4 73.1 29.28 73.1 598 301 1666 -0.48 0.00 0.00 0.000
2:20am 92 0 0 44 96 72.4 73.2 29.28 73.2 598 301 1673 -0.37 0.00 0.00 0.000
2:21am 92 0 0 44 96 72.4 73.2 29.28 73.2 598 301 1673 -0.36 0.00 0.00 0.000
2:22am 92 2 2 44 96 72.4 73.2 29.28 73.2 598 301 1673 -0.36 0.00 0.00 0.000
2:23am 93 0 3 44 96 72.4 73.3 29.28 73.3 598 301 1679 -0.25 0.00 0.00 0.000
2:24am 93 0 3 44 96 72.4 73.3 29.28 73.3 597 301 1678 -0.25 0.00 0.00 0.000
2:25am 93 0 3 44 96 72.4 73.3 29.28 73.3 597 301 1678 -0.24 0.00 0.00 0.000
2:26am 93 0 0 44 96 72.4 73.3 29.28 73.3 597 301 1678 -0.24 0.00 0.00 0.000
2:27am 93 0 0 44 96 72.4 73.3 29.28 73.3 597 301 1678 -0.24 0.00 0.00 0.000
2:28am 93 0 0 44 96 72.4 73.3 29.28 73.3 597 301 1678 -0.23 0.00 0.00 0.000
2:29am 93 0 0 44 96 72.4 73.3 29.28 73.3 597 301 1678 -0.23 0.00 0.00 0.000
2:30am 93 0 0 44 96 72.4 73.3 29.28 73.3 597 301 1678 -0.22 0.00 0.00 0.000
2:31am 93 0 0 44 96 72.4 73.2 29.28 73.2 598 301 1673 -0.32 0.00 0.00 0.000
2:32am 93 0 0 44 96 72.3 73.2 29.28 73.2 598 301 1673 -0.31 0.00 0.00 0.000
2:33am 93 1 2 44 96 72.3 73.2 29.28 73.2 598 301 1673 -0.31 0.00 0.00 0.000
2:34am 93 0 2 44 96 72.3 73.2 29.28 73.2 598 301 1673 -0.30 0.00 0.00 0.000
2:35am 93 1 2 44 96 72.3 73.0 29.28 73.0 598 301 1660 -0.50 0.00 0.00 0.000
2:36am 93 1 1 44 96 72.4 73.1 29.28 73.1 598 301 1666 -0.39 0.00 0.00 0.000
2:37am 93 1 2 44 96 72.3 73.1 29.28 73.1 599 301 1667 -0.38 0.00 0.00 0.000
2:38am 93 0 2 44 96 72.4 73.1 29.28 73.1 599 301 1667 -0.38 0.00 0.00 0.000
2:39am 93 0 2 44 96 72.4 73.1 29.28 73.1 599 301 1667 -0.37 0.00 0.00 0.000
2:40am 93 0 2 44 96 72.4 73.1 29.28 73.1 600 301 1669 -0.36 0.00 0.00 0.000
2:41am 93 0 0 44 96 72.4 73.1 29.28 73.1 600 301 1669 -0.36 0.00 0.00 0.000
2:42am 93 0 0 44 95 72.4 73.1 29.28 73.1 600 378 1669 -0.35 0.00 0.00 0.000
2:43am 93 0 0 44 95 72.4 73.1 29.28 73.1 601 378 1670 -0.35 0.00 0.00 0.000
2:44am 93 0 0 46 95 72.4 73.1 29.27 73.1 603 378 1672 -0.34 0.00 0.00 0.000
2:45am 93 0 0 44 95 72.4 73.2 29.27 73.2 603 378 1678 -0.24 0.00 0.00 0.000
2:46am 93 1 1 44 95 72.4 73.2 29.27 73.2 603 378 1678 -0.23 0.00 0.00 0.000
2:47am 93 0 1 44 95 72.4 73.2 29.27 73.2 603 378 1678 -0.23 0.00 0.00 0.000
2:48am 93 0 1 44 95 72.4 73.1 29.27 73.1 603 378 1672 -0.32 0.00 0.00 0.000
2:49am 93 0 1 44 95 72.4 73.2 29.27 73.2 603 378 1678 -0.22 0.00 0.00 0.000
2:50am 93 0 1 44 95 72.4 73.1 29.27 73.1 603 378 1672 -0.31 0.00 0.00 0.000
2:51am 93 0 1 44 95 72.4 73.2 29.27 73.2 603 378 1678 -0.21 0.00 0.00 0.000
2:52am 93 0 1 44 95 72.4 73.2 29.27 73.2 602 378 1677 -0.20 0.00 0.00 0.000
2:53am 93 0 2 44 95 72.4 73.1 29.27 73.1 603 378 1672 -0.30 0.00 0.00 0.000
2:54am 93 0 2 44 95 72.6 73.1 29.27 73.1 603 378 1672 -0.29 0.00 0.00 0.000
2:55am 93 0 2 44 95 72.6 73.1 29.27 73.1 602 378 1671 -0.29 0.00 0.00 0.000
2:56am 93 0 0 44 95 72.6 73.1 29.27 73.1 603 378 1672 -0.28 0.00 0.00 0.000
2:57am 93 0 0 44 95 72.6 73.1 29.27 73.1 602 378 1671 -0.28 0.00 0.00 0.000
2:58am 93 0 0 44 95 72.6 73.1 29.27 73.1 603 378 1672 -0.28 0.00 0.00 0.000
2:59am 93 0 0 44 95 72.6 73.1 29.27 73.1 603 378 1672 -0.27 0.00 0.00 0.000
3:00am 93 0 1 44 95 72.6 73.1 29.27 73.1 603 378 1672 -0.27 0.00 0.00 0.000
3:01am 93 0 1 44 95 72.6 73.1 29.27 73.1 603 378 1672 -0.26 0.00 0.00 0.000
3:02am 93 0 1 44 95 72.6 73.1 29.27 73.1 604 378 1673 -0.26 0.00 0.00 0.000
3:03am 93 0 1 44 95 72.6 73.1 29.27 73.1 604 378 1673 -0.25 0.00 0.00 0.000
3:04am 93 0 1 44 95 72.6 73.1 29.27 73.1 606 378 1675 -0.25 0.00 0.00 0.000
3:05am 93 0 1 44 95 72.4 73.1 29.27 73.1 606 378 1675 -0.24 0.00 0.00 0.000
3:06am 93 1 1 44 95 72.4 73.1 29.27 73.1 605 378 1674 -0.24 0.00 0.00 0.000
3:07am 93 0 1 44 95 72.4 73.0 29.27 73.0 606 378 1669 -0.33 0.00 0.00 0.000
3:08am 93 0 2 44 95 72.4 73.0 29.27 73.0 604 378 1667 -0.33 0.00 0.00 0.000
3:09am 93 0 2 44 95 72.4 73.0 29.27 73.0 603 378 1666 -0.32 0.00 0.00 0.000
3:10am 93 1 2 44 95 72.4 73.0 29.27 73.0 603 378 1666 -0.32 0.00 0.00 0.000
3:11am 93 0 1 44 95 72.4 73.0 29.27 73.0 603 378 1666 -0.31 0.00 0.00 0.000
3:12am 93 1 1 44 95 72.4 73.0 29.27 73.0 603 378 1666 -0.31 0.00 0.00 0.000
3:13am 93 0 1 44 95 72.4 73.0 29.27 73.0 603 378 1666 -0.30 0.00 0.00 0.000
3:14am 93 0 1 44 95 72.4 72.9 29.28 72.9 601 378 1657 -0.40 0.00 0.00 0.000
3:15am 93 1 3 44 95 72.4 72.9 29.27 72.9 602 378 1658 -0.39 0.00 0.00 0.000
3:16am 93 1 1 44 95 72.4 73.0 29.27 73.0 602 378 1664 -0.28 0.00 0.00 0.000
3:17am 93 0 1 44 95 72.4 72.9 29.27 72.9 603 378 1659 -0.38 0.00 0.00 0.000
3:18am 93 0 1 44 95 72.4 72.9 29.27 72.9 604 378 1660 -0.37 0.00 0.00 0.000
3:19am 93 0 1 44 95 72.4 72.9 29.27 72.9 604 378 1660 -0.37 0.00 0.00 0.000
3:20am 93 0 1 44 95 72.4 72.9 29.27 72.9 605 378 1662 -0.36 0.00 0.00 0.000
3:21am 93 0 0 44 95 72.4 72.9 29.27 72.9 606 378 1663 -0.35 0.00 0.00 0.000
3:22am 93 0 0 44 95 72.4 72.9 29.27 72.9 607 378 1664 -0.35 0.00 0.00 0.000
3:23am 93 0 0 44 95 72.4 72.8 29.27 72.8 607 378 1657 -0.44 0.00 0.00 0.000
3:24am 93 0 0 44 95 72.4 72.8 29.27 72.8 608 378 1659 -0.43 0.00 0.00 0.000
3:25am 93 0 1 44 95 72.4 72.8 29.27 72.8 609 378 1660 -0.42 0.00 0.00 0.000
3:26am 93 1 1 44 95 72.4 72.8 29.27 72.8 609 378 1660 -0.42 0.00 0.00 0.000
3:27am 93 0 1 44 95 72.4 72.8 29.27 72.8 609 378 1661 -0.41 0.00 0.00 0.000
3:28am 93 0 1 44 95 72.4 72.7 29.27 72.7 610 378 1656 -0.50 0.00 0.00 0.000
3:29am 93 0 1 44 95 72.4 72.7 29.27 72.7 609 378 1655 -0.50 0.00 0.00 0.000
3:30am 93 0 1 44 95 72.4 72.7 29.27 72.7 609 378 1653 -0.49 0.00 0.00 0.000
3:31am 93 0 0 44 95 72.6 72.7 29.27 72.7 607 378 1651 -0.48 0.00 0.00 0.000
3:32am 93 1 1 44 95 72.6 72.7 29.27 72.7 606 378 1650 -0.47 0.00 0.00 0.000
3:33am 93 1 2 44 95 72.6 72.7 29.27 72.7 605 378 1649 -0.46 0.00 0.00 0.000
3:34am 93 0 2 44 95 72.6 72.7 29.27 72.7 604 378 1648 -0.46 0.00 0.00 0.000
3:35am 93 1 2 44 96 72.6 72.7 29.27 72.7 604 301 1648 -0.45 0.00 0.00 0.000
3:36am 93 0 1 44 96 72.6 72.7 29.27 72.7 603 301 1647 -0.44 0.00 0.00 0.000
3:37am 93 1 1 44 96 72.6 72.7 29.27 72.7 603 301 1647 -0.43 0.00 0.00 0.000
3:38am 93 0 1 44 96 72.6 72.7 29.27 72.7 603 301 1647 -0.43 0.00 0.00 0.000
3:39am 93 0 1 44 96 72.6 72.7 29.27 72.7 603 301 1647 -0.42 0.00 0.00 0.000
3:40am 93 0 1 44 96 72.6 72.8 29.27 72.8 602 301 1652 -0.31 0.00 0.00 0.000
3:41am 93 0 0 44 96 72.6 72.8 29.27 72.8 602 301 1652 -0.31 0.00 0.00 0.000
3:42am 93 0 0 44 96 72.6 72.8 29.28 72.8 601 301 1651 -0.30 0.00 0.00 0.000
3:43am 93 0 0 44 96 72.8 72.8 29.27 72.8 602 301 1652 -0.30 0.00 0.00 0.000
3:44am 93 0 0 44 95 72.8 72.8 29.27 72.8 603 378 1653 -0.29 0.00 0.00 0.000
3:45am 93 0 0 44 95 72.8 72.8 29.27 72.8 604 378 1654 -0.29 0.00 0.00 0.000
3:46am 93 1 1 44 96 72.8 72.8 29.27 72.8 605 301 1655 -0.28 0.00 0.00 0.000
3:47am 93 1 1 44 96 72.6 72.8 29.27 72.8 606 301 1656 -0.28 0.00 0.00 0.000
3:48am 93 1 1 44 96 72.6 72.8 29.27 72.8 608 301 1659 -0.27 0.00 0.00 0.000
3:49am 93 1 1 44 96 72.6 72.9 29.27 72.9 608 301 1665 -0.17 0.00 0.00 0.000
3:50am 93 0 1 44 96 72.6 72.9 29.27 72.9 608 301 1665 -0.17 0.00 0.00 0.000
3:51am 93 1 1 44 96 72.6 72.9 29.27 72.9 609 301 1666 -0.17 0.00 0.00 0.000
3:52am 93 1 1 44 96 72.6 72.9 29.27 72.9 609 301 1666 -0.16 0.00 0.00 0.000
3:53am 93 0 1 44 96 72.6 72.9 29.27 72.9 608 301 1665 -0.16 0.00 0.00 0.000
3:54am 93 0 1 44 95 72.6 72.9 29.27 72.9 608 378 1665 -0.16 0.00 0.00 0.000
3:55am 93 0 1 44 95 72.6 72.9 29.27 72.9 609 378 1666 -0.16 0.00 0.00 0.000
3:56am 93 0 0 44 95 72.6 73.0 29.27 73.0 609 378 1674 -0.05 0.00 0.00 0.000
3:57am 93 0 0 44 95 72.6 72.9 29.27 72.9 610 378 1668 -0.15 0.00 0.00 0.000
3:58am 93 0 0 44 95 72.6 72.9 29.26 72.9 611 378 1669 -0.15 0.00 0.00 0.000
3:59am 93 0 0 44 95 72.6 72.9 29.26 72.9 611 378 1669 -0.15 0.00 0.00 0.000
4:00am 93 0 0 44 95 72.6 72.9 29.26 72.9 611 378 1669 -0.14 0.00 0.00 0.000
4:01am 93 0 0 44 95 72.6 72.8 29.26 72.8 611 378 1663 -0.24 0.00 0.00 0.000
4:02am 93 0 0 44 95 72.6 72.8 29.26 72.8 611 378 1663 -0.23 0.00 0.00 0.000
4:03am 93 0 0 44 95 72.6 72.8 29.26 72.8 611 378 1663 -0.23 0.00 0.00 0.000
4:04am 93 0 0 44 95 72.6 72.8 29.26 72.8 611 378 1663 -0.23 0.00 0.00 0.000
4:05am 93 0 0 44 95 72.6 72.8 29.26 72.8 611 378 1663 -0.22 0.00 0.00 0.000
4:06am 93 0 0 44 95 72.6 72.7 29.26 72.7 611 378 1657 -0.32 0.00 0.00 0.000
4:07am 93 0 0 44 95 72.6 72.6 29.26 72.6 611 378 1650 -0.41 0.00 0.00 0.000
4:08am 93 0 0 44 95 72.6 72.6 29.26 72.6 611 378 1650 -0.41 0.00 0.00 0.000
4:09am 93 0 0 44 95 72.6 72.6 29.26 72.6 612 378 1652 -0.40 0.00 0.00 0.000
4:10am 93 0 0 44 95 72.6 72.6 29.26 72.6 612 378 1652 -0.39 0.00 0.00 0.000
4:11am 93 0 0 44 95 72.6 72.5 29.26 72.5 612 377 1645 -0.49 0.00 0.00 0.000
4:12am 93 0 0 44 95 72.6 72.5 29.26 72.5 612 377 1645 -0.48 0.00 0.00 0.000
4:13am 93 0 0 44 95 72.6 72.5 29.26 72.5 611 377 1644 -0.47 0.00 0.00 0.000
4:14am 93 0 0 44 95 72.6 72.5 29.26 72.5 611 377 1644 -0.46 0.00 0.00 0.000
4:15am 93 0 0 44 95 72.6 72.4 29.26 72.4 612 377 1639 -0.55 0.00 0.00 0.000
4:16am 93 0 0 44 95 72.6 72.4 29.26 72.4 612 377 1639 -0.54 0.00 0.00 0.000
4:17am 93 0 0 44 95 72.6 72.3 29.26 72.3 612 377 1633 -0.64 0.00 0.00 0.000
4:18am 93 1 1 44 95 72.6 72.3 29.26 72.3 612 377 1633 -0.63 0.00 0.00 0.000
4:19am 93 1 1 44 95 72.6 72.3 29.26 72.3 612 377 1633 -0.61 0.00 0.00 0.000
4:20am 93 0 1 44 95 72.8 72.3 29.26 72.3 612 377 1633 -0.60 0.00 0.00 0.000
4:21am 93 0 0 44 95 72.8 72.2 29.26 72.2 612 377 1626 -0.69 0.00 0.00 0.000
4:22am 93 0 0 44 95 72.8 72.1 29.26 72.1 612 377 1620 -0.78 0.00 0.00 0.000
4:23am 93 0 0 44 95 72.8 72.1 29.26 72.1 612 377 1620 -0.77 0.00 0.00 0.000
4:24am 93 0 0 44 95 72.8 72.1 29.26 72.1 612 377 1620 -0.76 0.00 0.00 0.000
4:25am 93 0 0 44 96 72.8 72.1 29.26 72.1 612 300 1620 -0.74 0.00 0.00 0.000
4:26am 93 0 0 44 96 72.8 72.0 29.26 72.0 612 300 1613 -0.83 0.00 0.00 0.000
4:27am 93 0 0 44 96 72.8 72.0 29.26 72.0 612 300 1613 -0.82 0.00 0.00 0.000
4:28am 93 0 0 44 96 72.8 72.0 29.26 72.0 612 300 1613 -0.80 0.00 0.00 0.000
4:29am 93 0 0 44 96 72.8 72.0 29.26 72.0 612 300 1613 -0.79 0.00 0.00 0.000
4:30am 93 0 0 44 96 72.8 72.0 29.26 72.0 612 300 1613 -0.78 0.00 0.00 0.000
4:31am 93 0 0 44 96 72.8 71.9 29.26 71.9 612 300 1607 -0.86 0.00 0.00 0.000
4:32am 93 0 0 44 96 72.8 71.9 29.26 71.9 612 300 1607 -0.85 0.00 0.00 0.000
4:33am 93 0 0 44 96 72.8 71.9 29.26 71.9 612 300 1607 -0.83 0.00 0.00 0.000
4:34am 93 0 0 44 96 72.8 71.8 29.26 71.8 612 299 1601 -0.92 0.00 0.00 0.000
4:35am 93 0 0 44 96 72.8 71.8 29.26 71.8 613 299 1602 -0.90 0.00 0.00 0.000
4:36am 93 0 0 44 96 72.8 71.7 29.26 71.7 613 299 1596 -0.99 0.00 0.00 0.000
4:37am 93 0 0 44 96 72.8 71.7 29.26 71.7 613 299 1596 -0.97 0.00 0.00 0.000
4:38am 93 0 0 44 96 72.8 71.7 29.26 71.7 613 299 1596 -0.95 0.00 0.00 0.000
4:39am 93 0 0 44 96 72.8 71.7 29.26 71.7 613 299 1596 -0.94 0.00 0.00 0.000
4:40am 93 0 0 44 96 72.8 71.6 29.26 71.6 613 299 1589 -1.02 0.00 0.00 0.000
4:41am 93 0 0 44 96 72.8 71.6 29.26 71.6 613 299 1589 -1.00 0.00 0.00 0.000
4:42am 93 0 0 44 96 72.8 71.6 29.26 71.6 612 299 1588 -0.99 0.00 0.00 0.000
4:43am 93 0 0 44 96 72.8 71.5 29.26 71.5 612 299 1582 -1.07 0.00 0.00 0.000
4:44am 93 0 0 44 96 72.8 71.5 29.26 71.5 612 299 1582 -1.05 0.00 0.00 0.000
4:45am 93 0 0 44 96 72.8 71.5 29.26 71.5 612 299 1582 -1.03 0.00 0.00 0.000
4:46am 93 0 0 44 96 72.6 71.5 29.26 71.5 612 299 1582 -1.02 0.00 0.00 0.000
4:47am 93 0 0 44 96 72.6 71.5 29.26 71.5 612 299 1582 -1.00 0.00 0.00 0.000
4:48am 93 0 0 44 96 72.6 71.5 29.26 71.5 612 299 1582 -0.98 0.00 0.00 0.000
4:49am 93 0 0 44 97 72.6 71.4 29.26 71.4 612 223 1575 -1.07 0.00 0.00 0.000
4:50am 93 0 0 44 96 72.6 71.4 29.26 71.4 612 299 1575 -1.05 0.00 0.00 0.000
4:51am 93 0 0 44 96 72.6 71.3 29.26 71.3 612 299 1569 -1.13 0.00 0.00 0.000
4:52am 93 0 0 44 97 72.6 71.3 29.26 71.3 612 223 1569 -1.11 0.00 0.00 0.000
4:53am 93 0 0 44 97 72.6 71.3 29.26 71.3 612 223 1569 -1.09 0.00 0.00 0.000
4:54am 93 0 0 44 97 72.6 71.3 29.26 71.3 612 223 1569 -1.08 0.00 0.00 0.000
4:55am 93 0 0 44 97 72.6 71.3 29.26 71.3 612 223 1569 -1.06 0.00 0.00 0.000
4:56am 93 0 0 44 97 72.6 71.3 29.26 71.3 612 223 1569 -1.04 0.00 0.00 0.000
4:57am 93 0 0 44 97 72.6 71.2 29.26 71.2 612 223 1563 -1.12 0.00 0.00 0.000
4:58am 93 0 0 44 97 72.6 71.2 29.26 71.2 612 223 1563 -1.10 0.00 0.00 0.000
4:59am 93 0 0 44 97 72.6 71.2 29.26 71.2 612 223 1563 -1.08 0.00 0.00 0.000
5:00am 93 0 0 44 97 72.8 71.2 29.26 71.2 612 223 1563 -1.07 0.00 0.00 0.000
5:01am 93 0 0 46 97 72.8 71.2 29.26 71.2 612 223 1563 -1.05 0.00 0.00 0.000
5:02am 93 0 0 44 97 72.8 71.1 29.26 71.1 612 223 1556 -1.13 0.00 0.00 0.000
5:03am 93 0 0 44 97 72.8 71.2 29.26 71.2 612 223 1563 -1.01 0.00 0.00 0.000
5:04am 93 0 0 44 97 72.8 71.1 29.26 71.1 612 223 1556 -1.10 0.00 0.00 0.000
5:05am 93 0 0 44 97 72.8 71.1 29.26 71.1 612 223 1556 -1.08 0.00 0.00 0.000
5:06am 93 0 0 44 97 72.8 71.0 29.26 71.0 612 223 1550 -1.16 0.00 0.00 0.000
5:07am 93 0 0 44 97 72.8 71.0 29.26 71.0 612 223 1550 -1.14 0.00 0.00 0.000
5:08am 93 0 0 44 97 72.8 71.0 29.26 71.0 612 223 1550 -1.12 0.00 0.00 0.000
|
Data provided from: Mark Hofmann's Bel Air, MD Weather Station |